Location: Bord�res
(43.2000°N, 0.2167°W)
Time: 13:45:09
(UTC+00:00)

Resurs 01 Rocket - Pass Details

Date: 03 March 2021
Orbit: 635 x 643 km, 98.0° (Epoch: 20 April)

Event Time Altitude Azimuth Distance (km) Brightness Sun altitude
Exits shadow 20:50:11 20° 341° (NNW) 1,469 3.8 -32.5°
Drops below altitude 10° 20:51:36 10° 344° (NNW) 2,032 4.6 -32.7°
Sets 20:53:49 0° 346° (NNW) 2,946 5.5 -33.1°
